Regional Weather Roundup
Issued by NWS

Home | Current Version | Previous Version | Text Only | Print | Product List | Glossary Off
Versions: 1 2 3 4 5 6 7 8 9 10 11 12 13 14 15 16 17 18 19 20 21 22 23 24 25 26 27 28

000
ASUS45 KTFX 161510
RWRMT
MONTANA REGIONAL WEATHER ROUNDUP
NATIONAL WEATHER SERVICE GREAT FALLS MT
800 AM MST MON JAN 16 2017

NOTE: "FAIR" INDICATES FEW OR NO CLOUDS BELOW 12000 FEET WITH NO
SIGNIFICANT WEATHER AND/OR OBSTRUCTIONS TO VISIBILITY.

MTZ001>007-043-161600-
WEST OF THE DIVIDE

CITY           SKY/WX    TMP DP  RH WIND       PRES   REMARKS
KALISPELL      FLURRIES  11   6  81 N5        30.37S
MISSOULA       PTCLDY    -5  -8  87 SE3       30.40R
BUTTE          CLOUDY   -13 -19  75 CALM      30.21F
MULLAN PASS    CLEAR     19  14  81 SW3       30.14F
ANACONDA         N/A      1  -4  78 S6        30.21F WCI -10
DEER LODGE       N/A     -8 -11  84 CALM      30.26F
EUREKA           N/A     10   7  85 S3        30.39S
HAMILTON         N/A     -8 -11  84 CALM      30.35R
RONAN            N/A      1  -5  76 MISG      30.33R VSB 0
$$

MTZ008-052>055-161600-
SOUTHWEST MONTANA

CITY           SKY/WX    TMP DP  RH WIND       PRES   REMARKS
BOZEMAN        CLEAR     -9 -11  91 CALM      30.24R
DILLON         CLOUDY     9  -8  46 S8        30.21S WCI  -3
ENNIS          CLEAR      0  -8  71 CALM      30.25F
$$

MTZ009-010-012-014-046-048-049-054-161600-
EAST SLOPES AND CENTRAL MONTANA

CITY           SKY/WX    TMP DP  RH WIND       PRES   REMARKS
CUT BANK       CLEAR     24  13  62 W15       30.02F WCI  11
GREAT FALLS    CLOUDY    23  10  57 S17       30.08F WCI   9
MALMSTROM AFB  CLOUDY    23  13  64 SW17      30.10F WCI  10
HELENA         CLOUDY    -6 -11  79 CALM      30.25F HAZE
AUGUSTA          N/A     20  11  69 S7        30.06S WCI  11
BOWMANS CRNR     N/A     16   7  68 S20       30.07F WCI  -1
CHOTEAU          N/A     21  12  68 S8        30.07F WCI  12
CONRAD           N/A     10   6  84 S6        30.06S WCI   0
FAIRFIELD        N/A     20  10  63 S14       30.07F WCI   7
POWER            N/A     12   6  78 S7        30.07F WCI   1
RAYNESFORD       N/A     29  11  47 SW21      30.10R WCI  16
ULM              N/A     20   9  62 MISG      30.11F
$$

MTZ011-013-016-021-045-047-050-051-161600-
NORTH CENTRAL MONTANA

CITY           SKY/WX    TMP DP  RH WIND       PRES   REMARKS
HAVRE          CLEAR      9   4  80 W6        30.12F WCI  -1
LEWISTOWN      CLOUDY    19   8  62 CALM      30.10S
N BAR RANCH      N/A     25  10  54 W8        30.10F WCI  16
CHINOOK          N/A      3   1  92 CALM      30.13F
DENTON           N/A     17   8  67 SW12      30.09R WCI   4
FORT BENTON      N/A     16   7  67 MISG      30.13F
GEYSER           N/A     19  10  66 SW12      30.09S WCI   7
GRASS RANGE      N/A     28  13  55 SW21      30.06F WCI  14
JUDITH GAP       N/A     14   4  63 S14       30.08F WCI  -1
ROY              N/A     21  12  68 MISG      30.08R
STANFORD         N/A     23  11  60 W7        30.09R WCI  14
WINIFRED         N/A     26  11  54 SW8       30.10R WCI  17
$$

MTZ017>020-022>027-061-062-161600-
NORTHEAST MONTANA

CITY           SKY/WX    TMP DP  RH WIND       PRES   REMARKS
GLASGOW        CLOUDY     0  -3  87 W5        30.13R
JORDAN           N/A      3  -1  83 W3        30.13S
SIDNEY         CLOUDY     3  -1  83 SW8       30.14R WCI -10
WOLF POINT     CLOUDY     5   1  83 SW9       30.15R WCI  -9
PLENTYWOOD       N/A     14  10  85 CALM      30.09R
POPLAR           N/A      3   0  85 W5        30.16R
SCOBEY           N/A      4  -4  69 CALM      30.06
$$

MTZ028>42-056>058-161600-
SOUTHCENTRAL AND SOUTHEAST MONTANA

CITY           SKY/WX    TMP DP  RH WIND       PRES   REMARKS
BAKER          CLOUDY    12   4  70 W20       30.10R WCI  -6
BILLINGS       CLEAR     15   3  59 SW22      30.15F WCI  -3
LIVINGSTON     CLOUDY    15   4  61 NW20      30.16F WCI  -2
MILES CITY     CLOUDY     1  -4  79 SW9       30.17R WCI -14
BIG TIMBER     CLEAR     23   7  50 W28G33    30.14S WCI   6
FORSYTH          N/A      7   1  78 SW5       30.17R
HARLOWTON        N/A     17   6  61 NW13      30.12R WCI   4
LAUREL           N/A      8  -5  55 SW10      30.12F WCI  -6
$$

REGIONAL REPORTS...DAKOTAS

CITY           SKY/WX    TMP DP  RH WIND       PRES   REMARKS
WILLISTON      CLOUDY     5   1  83 SW8       30.12R WCI  -8
MINOT          CLOUDY    16  10  77 W9        30.03R WCI   4
DICKINSON      CLOUDY    12   6  77 W14       30.05R WCI  -3
BEACH            N/A     12   7  79 W8        30.12S WCI   1
CROSBY           N/A     14  12  92 W9        30.10R WCI   2
TIOGA            N/A      9   7  92 W12       30.08R WCI  -6
WATFORD CITY     N/A      7   1  78 SW9       30.11R WCI  -7
BISMARCK       CLOUDY    -6 -11  79 CALM      30.09S
GRAND FORKS    CLOUDY     5  -1  76 S8        30.07R WCI  -8
FARGO          CLOUDY    10   7  87 S9        30.10R WCI  -3
BUFFALO SD       N/A     13   4  67 W10       30.02R WCI   0
RAPID CITY     CLOUDY    27   9  46 N18       30.08R WCI  14
$$

REGIONAL REPORTS...WYOMING/IDAHO/WASHINGTON

CITY           SKY/WX    TMP DP  RH WIND       PRES   REMARKS
GILLETTE       CLOUDY    11   4  73 SW3       30.12R
SHERIDAN       CLOUDY    13   1  59 S3        30.15R
BUFFALO WY     CLEAR     25   2  37 SW6       30.13R WCI  18
CODY           CLOUDY    14   4  64 W3        30.16R
YELLOWSTONE LA   N/A    -21 -26  77 CALM      30.18S
IDAHO FALLS    FOG       -7  -9  91 NW9       30.33R VSB 1/2 WCI -24
SALMON         CLOUDY   -26 N/A N/A CALM      30.53S
BOISE          PTCLDY     3  -2  79 CALM      30.45S
SPOKANE        SNOW       3   1  91 CALM      30.34F VSB 1/4
$$

REGIONAL REPORTS...ALBERTA

CITY           SKY/WX    TMP DP  RH WIND       PRES   REMARKS
EDMONTON       MOCLDY    25   9  50 SW13      29.82F WCI  13
CALGARY        PTCLDY    27  12  54 SE5       29.90F
LETHBRIDGE     MOCLDY    21  14  73 SW14      29.97F WCI   8
MEDICINE HAT   PTCLDY    12   7  79 SW7       30.02F WCI   2
WATERTON GATE    N/A     30  14  51 SW37G54     N/A  WCI  14
CARDSTON         N/A     27  12  54 SW10        N/A  WCI  17
MILK RIVER       N/A     14   9  79 W8          N/A  WCI   3
$$

REGIONAL REPORTS...SASKATCHEWAN

CITY           SKY/WX    TMP DP  RH WIND       PRES   REMARKS
SWIFT CURRENT  CLEAR     18  14  86 SW12      30.02F WCI   5
REGINA         CLEAR      5   3  92 SW8       30.05S WCI  -8
SASKATOON      PTCLDY    12   9  85 S9        30.00S WCI   0
CYPRESS HILLS    N/A     23  14  68 S7          N/A  WCI  15
VAL MARIE        N/A     -4  -8  84 E6          N/A  WCI -16
ROCKGLEN         N/A     23  18  80 W3          N/A
ASSINIBOIA       N/A     16  10  79 S8          N/A  WCI   5
$$



USA.gov is the U.S. government's official web portal to all federal, state and local government web resources and services.